Volver al catálogo

USA 352

ActivoMilitarVLEO
NORAD 59288·PAYLOAD·🇺🇸 United States

Lanzado Mar 21, 2024 desde Wallops Flight Facility

Loading…

Próximos Pases (próximas 24 horas)

TLE

ObsoletoSource: Mike McCants

Época: Mar 12, 2026, 18:36 UTC

1 59288U 24053A   26071.77543472 0.00005000  00000-0  91679-4 0    05
2 59288  50.0103  30.1093 0005000 140.6283 219.3715 15.48598751    09

Sigue USA 352 en tiempo real con AllMySat

Download on the App Store